User: anonymous   Login
Location: Unspecified
(0.0000°N, 0.0000°E)
Time: 00:42:48
(UTC+00:00)
Language:

BIROS - Orbit

View from above orbital plane
View from above orbital plane
View from above satellite
View from above satellite

Ground track
Ground track

The orbit data is extracted from the following two-line orbital elements,

1 41604U 16040F   21023.60668728  .00000589  00000-0  28424-4 0  9993
2 41604  97.2857  80.7142 0013580 126.5147 233.7343 15.22333890254866
Epoch (UTC): 23 January 2021 14:33:37
Eccentricity: 0.0013580
inclination: 97.2857°
perigee height: 489 km
apogee height: 508 km
right ascension of ascending node: 80.7142°
argument of perigee: 126.5147°
revolutions per day: 15.22333890
mean anomaly at epoch: 233.7343°
orbit number at epoch: 25486

The dashed part of the orbit path shows where the satellite is in the earth's shadow,  

DLR